EN

Hourly Weather Ladygino

Today, 25 July, Sunday

Time Temperature Precipitation Wind Pressure Humidity
00:00 +14°C° 0 mm 1 mps 754 mmHg 68%
01:00 +13°C° 0 mm 1 mps 754 mmHg 70%
02:00 +13°C° 0 mm 1 mps 754 mmHg 72%
03:00 +13°C° 0 mm 1 mps 754 mmHg 73%
04:00 +13°C° 0 mm 1 mps 754 mmHg 73%
05:00 +13°C° 0 mm 1 mps 754 mmHg 73%
06:00 +16°C° 0 mm 1 mps 754 mmHg 65%
07:00 +19°C° 0 mm 1 mps 754 mmHg 57%
08:00 +20°C° 0 mm 0 mps 755 mmHg 49%
09:00 +22°C° 0 mm 0 mps 755 mmHg 44%
10:00 +23°C° 0 mm 0 mps 755 mmHg 40%
11:00 +25°C° 0 mm 0 mps 755 mmHg 35%
12:00 +26°C° 0 mm 0 mps 755 mmHg 34%
13:00 +26°C° 0 mm 0 mps 755 mmHg 33%
14:00 +27°C° 0 mm 0 mps 754 mmHg 31%
15:00 +27°C° 0 mm 0 mps 754 mmHg 32%
16:00 +26°C° 0 mm 0 mps 754 mmHg 32%
17:00 +26°C° 0 mm 0 mps 754 mmHg 32%
18:00 +24°C° 0 mm 0 mps 754 mmHg 41%
19:00 +24°C° 0 mm 1 mps 754 mmHg 50%
20:00 +21°C° 0 mm 1 mps 754 mmHg 58%
21:00 +20°C° 0 mm 1 mps 755 mmHg 60%
22:00 +19°C° 0 mm 1 mps 755 mmHg 62%
23:00 +18°C° 0 mm 1 mps 755 mmHg 64%

Tomorrow, 26 July, Monday

Time Temperature Precipitation Wind Pressure Humidity
00:00 +18°C° 0 mm 1 mps 755 mmHg 66%
01:00 +16°C° 0 mm 1 mps 755 mmHg 67%
02:00 +16°C° 0 mm 1 mps 755 mmHg 69%
03:00 +16°C° 0 mm 1 mps 756 mmHg 70%
04:00 +16°C° 0 mm 1 mps 756 mmHg 71%
05:00 +16°C° 0 mm 1 mps 756 mmHg 72%
06:00 +19°C° 0 mm 1 mps 756 mmHg 64%
07:00 +20°C° 0 mm 0 mps 756 mmHg 57%
08:00 +22°C° 0 mm 0 mps 756 mmHg 49%
09:00 +26°C° 0 mm 1 mps 756 mmHg 44%
10:00 +28°C° 0 mm 1 mps 756 mmHg 40%
11:00 +29°C° 0 mm 1 mps 756 mmHg 35%
12:00 +30°C° 0 mm 1 mps 756 mmHg 33%
13:00 +31°C° 0 mm 1 mps 756 mmHg 32%
14:00 +31°C° 0 mm 1 mps 755 mmHg 30%
15:00 +31°C° 0 mm 1 mps 755 mmHg 31%
16:00 +31°C° 0 mm 1 mps 755 mmHg 32%
17:00 +30°C° 0 mm 1 mps 755 mmHg 33%
18:00 +28°C° 0 mm 1 mps 755 mmHg 42%
19:00 +26°C° 0 mm 1 mps 755 mmHg 51%
20:00 +23°C° 0 mm 1 mps 755 mmHg 60%
21:00 +22°C° 0 mm 1 mps 755 mmHg 62%
22:00 +22°C° 0 mm 1 mps 755 mmHg 63%
23:00 +19°C° 0 mm 0 mps 755 mmHg 65%

Day after tomorrow, 27 July, Tuesday

Time Temperature Precipitation Wind Pressure Humidity
00:00 +21°C° 0 mm 1 mps 755 mmHg 67%
01:00 +20°C° 0 mm 1 mps 755 mmHg 70%
02:00 +19°C° 0 mm 1 mps 755 mmHg 72%
03:00 +19°C° 0 mm 1 mps 755 mmHg 74%
04:00 +18°C° 0 mm 2 mps 755 mmHg 75%
05:00 +18°C° 0 mm 2 mps 755 mmHg 77%
06:00 +20°C° 0 mm 2 mps 755 mmHg 69%
07:00 +24°C° 0 mm 2 mps 755 mmHg 62%
08:00 +26°C° 0 mm 2 mps 755 mmHg 54%
09:00 +27°C° 0 mm 3 mps 755 mmHg 48%
10:00 +29°C° 0 mm 3 mps 754 mmHg 42%
11:00 +31°C° 0 mm 3 mps 754 mmHg 37%
12:00 +30°C° 0 mm 3 mps 754 mmHg 37%
13:00 +30°C° 0 mm 3 mps 753 mmHg 38%
14:00 +30°C° 0 mm 3 mps 753 mmHg 39%
15:00 +30°C° 0 mm 2 mps 753 mmHg 42%
16:00 +29°C° 0 mm 2 mps 752 mmHg 45%
17:00 +28°C° 0 mm 2 mps 752 mmHg 49%
18:00 +27°C° 0 mm 2 mps 752 mmHg 54%
19:00 +25°C° 0 mm 1 mps 752 mmHg 60%
20:00 +24°C° 0 mm 1 mps 751 mmHg 66%
21:00 +24°C° 0 mm 1 mps 751 mmHg 65%
22:00 +23°C° 0 mm 2 mps 751 mmHg 65%
23:00 +23°C° 0 mm 2 mps 751 mmHg 65%

28 July, Wednesday

Time Temperature Precipitation Wind Pressure Humidity
00:00 +23°C° 0 mm 2 mps 750 mmHg 68%
01:00 +21°C° 0 mm 2 mps 750 mmHg 71%
02:00 +21°C° 0 mm 2 mps 750 mmHg 74%
03:00 +20°C° 0.1 mm 2 mps 749 mmHg 79%
04:00 +20°C° 0.1 mm 2 mps 749 mmHg 85%
05:00 +19°C° 0.1 mm 2 mps 749 mmHg 90%
06:00 +19°C° 0.1 mm 2 mps 749 mmHg 92%
07:00 +20°C° 0.1 mm 2 mps 748 mmHg 93%
08:00 +21°C° 0.1 mm 1 mps 748 mmHg 94%
09:00 +21°C° 0.1 mm 1 mps 748 mmHg 92%
10:00 +22°C° 0.1 mm 1 mps 748 mmHg 90%
11:00 +20°C° 0.1 mm 0 mps 748 mmHg 87%
12:00 +23°C° 0.8 mm 1 mps 748 mmHg 88%
13:00 +23°C° 0.8 mm 1 mps 748 mmHg 88%
14:00 +23°C° 0.8 mm 2 mps 748 mmHg 88%
15:00 +24°C° 0.5 mm 2 mps 747 mmHg 85%
16:00 +24°C° 0.5 mm 2 mps 747 mmHg 81%
17:00 +25°C° 0.5 mm 2 mps 747 mmHg 78%
18:00 +24°C° 0.3 mm 2 mps 747 mmHg 81%
19:00 +23°C° 0.3 mm 1 mps 747 mmHg 85%
20:00 +22°C° 0.3 mm 1 mps 746 mmHg 88%
21:00 +21°C° 0 mm 1 mps 747 mmHg 89%
22:00 +21°C° 0 mm 1 mps 747 mmHg 89%
23:00 +20°C° 0 mm 1 mps 747 mmHg 89%

29 July, Thursday

Time Temperature Precipitation Wind Pressure Humidity
00:00 +20°C° 0 mm 1 mps 746 mmHg 89%
01:00 +18°C° 0 mm 2 mps 746 mmHg 89%
02:00 +18°C° 0 mm 2 mps 746 mmHg 89%
03:00 +18°C° 0 mm 2 mps 746 mmHg 90%
04:00 +19°C° 0 mm 1 mps 746 mmHg 91%
05:00 +18°C° 0 mm 1 mps 746 mmHg 93%
06:00 +18°C° 0 mm 2 mps 746 mmHg 89%
07:00 +19°C° 0 mm 3 mps 746 mmHg 84%
08:00 +20°C° 0 mm 3 mps 747 mmHg 80%
09:00 +20°C° 0.2 mm 3 mps 747 mmHg 82%
10:00 +19°C° 0.2 mm 2 mps 747 mmHg 84%
11:00 +19°C° 0.2 mm 2 mps 747 mmHg 85%
12:00 +21°C° 0.1 mm 2 mps 746 mmHg 77%
13:00 +22°C° 0.1 mm 3 mps 746 mmHg 68%
14:00 +25°C° 0.1 mm 3 mps 746 mmHg 60%
15:00 +25°C° 0.3 mm 3 mps 746 mmHg 64%
16:00 +24°C° 0.3 mm 3 mps 745 mmHg 68%
17:00 +24°C° 0.3 mm 3 mps 745 mmHg 72%
18:00 +23°C° 0.1 mm 2 mps 745 mmHg 75%
19:00 +21°C° 0.1 mm 2 mps 745 mmHg 77%
20:00 +20°C° 0.1 mm 2 mps 745 mmHg 79%
21:00 +19°C° 0 mm 2 mps 745 mmHg 82%
22:00 +18°C° 0 mm 2 mps 745 mmHg 85%
23:00 +17°C° 0 mm 2 mps 745 mmHg 88%

30 July, Friday

Time Temperature Precipitation Wind Pressure Humidity
00:00 +16°C° 0 mm 2 mps 745 mmHg 89%
01:00 +16°C° 0 mm 2 mps 746 mmHg 91%
02:00 +15°C° 0 mm 2 mps 746 mmHg 92%
03:00 +15°C° 0 mm 2 mps 746 mmHg 92%
04:00 +14°C° 0 mm 2 mps 746 mmHg 92%
05:00 +14°C° 0 mm 2 mps 746 mmHg 92%
06:00 +16°C° 0 mm 3 mps 746 mmHg 82%
07:00 +18°C° 0 mm 3 mps 746 mmHg 72%
08:00 +20°C° 0 mm 4 mps 747 mmHg 63%
09:00 +21°C° 0 mm 4 mps 746 mmHg 56%
10:00 +23°C° 0 mm 4 mps 746 mmHg 50%
11:00 +25°C° 0 mm 4 mps 746 mmHg 44%
12:00 +25°C° 0 mm 4 mps 746 mmHg 45%
13:00 +26°C° 0 mm 4 mps 746 mmHg 47%
14:00 +26°C° 0 mm 4 mps 746 mmHg 48%
15:00 +26°C° 0 mm 3 mps 745 mmHg 48%
16:00 +26°C° 0 mm 3 mps 745 mmHg 49%
17:00 +26°C° 0 mm 3 mps 745 mmHg 50%
18:00 +24°C° 0 mm 3 mps 745 mmHg 56%
19:00 +23°C° 0 mm 2 mps 745 mmHg 63%
20:00 +21°C° 0 mm 2 mps 745 mmHg 70%
21:00 +20°C° 0 mm 2 mps 745 mmHg 72%
22:00 +19°C° 0 mm 2 mps 745 mmHg 74%
23:00 +19°C° 0 mm 2 mps 745 mmHg 76%
Show more